Temperatura - Umidità - Pioggia orarie del 14-08-2020

Intensità - Direzione vento orarie del 14-08-2020

Dati orari da stazione meteo del 14-08-2020

Nome Stazione Data Ora Temperatura [°C] Umidità [%] Pioggia [mm] Intensità vento[km/h] Direzione vento [°]
Savigliano 13-08-2020 02:00 19.9 88.6 0 0.4 169
Savigliano 13-08-2020 03:00 20 88.6 0 0 170
Savigliano 13-08-2020 04:00 19.9 89 0 0.4 170
Savigliano 13-08-2020 05:00 19.8 88.9 0 1.1 169
Savigliano 13-08-2020 06:00 18.9 88.9 0 0 166
Savigliano 13-08-2020 07:00 17.5 90.7 0 0.4 161
Savigliano 13-08-2020 08:00 18.5 91.7 0 0.4 169
Savigliano 13-08-2020 09:00 21.8 82.8 0 0.4 161
Savigliano 13-08-2020 10:00 23.7 75.8 0 1.1 226
Savigliano 13-08-2020 11:00 25.7 72.5 0 0.7 298
Savigliano 13-08-2020 12:00 26.9 67.5 0 1.4 91
Savigliano 13-08-2020 13:00 27.5 62.5 0 1.4 93
Savigliano 13-08-2020 14:00 27.6 62.5 0 1.8 132
Savigliano 13-08-2020 15:00 28.1 60.2 0 1.8 105
Savigliano 13-08-2020 16:00 29 54.2 0 1.8 136
Savigliano 13-08-2020 17:00 27.5 61 0 0.4 186
Savigliano 13-08-2020 18:00 25.1 76.4 0 3.6 255
Savigliano 13-08-2020 19:00 26 71.6 0 1.1 210
Savigliano 13-08-2020 20:00 24.7 75.5 0 0.4 316
Savigliano 13-08-2020 21:00 23.5 76.1 0 1.4 119
Savigliano 13-08-2020 22:00 22.6 75.7 0 0.7 316
Savigliano 13-08-2020 23:00 22.3 75.5 0 1.1 273
Savigliano 14-08-2020 00:00 20.9 77 0 1.1 234
Savigliano 14-08-2020 01:00 19.7 81.8 0 1.4 189
Savigliano 14-08-2020 02:00 19.9 86.4 0 3.2 114
Savigliano 14-08-2020 03:00 20 87.3 0 1.1 175

Riassuntivo giornaliero del 14-08-2020